Dewpoint
28 36 37 44 47 48 48 52 53 53 54 57 53 62 61 69 73 72 73 73 74 76 75 74 73 73 72 72 71 71 71 72
24 23 28 46 47 46 48 48 50 52 52 55 58 59 64 72 72 71 73 73 75 76 75 74 73 73 72 72 72 72 72 72
19 20 23 42 47 47 46 45 48 51 50 53 62 66 70 71 71 70 72 73 75 76 75 74 73 73 73 72 72 72 72 72
18 20 23 48 50 48 46 45 46 50 51 54 64 67 69 71 71 71 71 73 74 75 75 75 74 73 73 73 73 72 72 72
20 21 21 47 49 47 45 45 42 48 50 55 60 63 68 70 72 72 71 73 73 74 74 74 75 74 74 73 73 73 73 73
20 21 39 47 49 48 48 44 51 49 50 53 56 62 67 69 71 71 71 72 72 73 73 73 73 74 74 74 73 73 73 73
19 23 37 48 47 50 51 48 51 54 50 52 57 61 66 68 69 69 69 70 72 72 71 72 72 73 74 74 74 74 73 73
21 24 24 47 48 48 48 48 48 50 52 55 57 64 64 65 66 68 68 69 70 71 72 72 72 71 72 72 72 72 72 72
17 20 22 41 46 48 48 45 47 46 49 57 58 60 62 63 64 65 68 69 70 70 71 71 70 71 72 71 71 72 71 71
11 14 17 39 46 47 48 45 47 46 49 57 58 58 59 60 63 61 65 68 70 71 71 70 70 71 70 70 70 70 70 69
8 7 9 21 42 45 47 47 50 48 49 52 55 58 59 60 63 61 63 64 68 69 69 70 68 70 69 70 70 69 69 69
11 10 9 16 21 39 46 48 49 49 50 51 53 55 58 60 61 62 61 61 64 66 67 68 68 68 68 68 68 68 68 68
11 10 6 12 12 14 21 40 48 50 53 58 56 57 56 60 61 62 61 61 63 63 64 64 66 67 64 66 66 66 66 66
10 13 10 11 7 10 14 34 45 46 60 64 66 61 59 57 60 59 62 62 63 62 63 63 65 65 65 65 65 65 65 65
12 12 11 12 9 11 19 32 49 56 63 65 66 67 68 65 64 59 61 62 62 63 65 66 66 67 67 67 68 69 68 67
14 14 13 10 10 11 17 51 58 62 63 64 65 66 68 68 69 67 68 65 64 65 67 68 68 70 71 69 68 69 68 69
18 18 15 14 12 12 15 46 58 60 63 64 64 65 67 68 68 69 69 69 69 69 70 69 70 70 69 67 67 66 66 67
17 19 16 16 15 14 21 44 57 59 62 62 62 64 65 66 66 67 67 68 68 69 69 70 69 69 68 67 66 65 65 65
15 17 18 16 15 17 22 31 53 58 61 62 63 63 63 64 65 66 66 66 66 67 68 69 69 68 67 67 66 63 63 64
16 19 15 16 11 15 19 29 47 54 58 61 62 63 63 63 64 65 65 66 65 66 66 68 68 67 66 65 63 64 63 63
Lifted_Index
1 1 0 -1 -3 -4 -4 -4 -4 -4 -4 -3 -1 -0 -0 -2 -3 -3 -3 -4 -4 -5 -5 -4 -3 -3 -3 -2 -2 -2 -3 -3
1 1 0 -1 -2 -3 -4 -3 -3 -3 -3 -3 -2 -1 -1 -2 -3 -3 -3 -4 -5 -5 -5 -4 -4 -3 -3 -3 -3 -3 -3 -3
0 1 1 -0 -2 -2 -2 -2 -2 -2 -3 -3 -3 -3 -3 -3 -3 -3 -3 -4 -5 -6 -5 -5 -4 -4 -4 -4 -3 -3 -3 -4
0 1 1 -1 -2 -2 -2 -2 -2 -2 -2 -2 -3 -3 -3 -4 -3 -3 -3 -4 -6 -6 -6 -5 -5 -5 -4 -4 -4 -4 -4 -4
1 1 0 -1 -2 -2 -2 -2 -1 -1 -1 -1 -2 -2 -3 -3 -3 -3 -4 -4 -5 -6 -6 -5 -5 -5 -5 -5 -5 -4 -4 -4
1 1 0 -1 -2 -2 -2 -1 -1 -1 -1 -1 -1 -1 -2 -3 -3 -3 -3 -4 -4 -5 -5 -5 -5 -5 -5 -5 -5 -5 -4 -4
1 2 1 -1 -2 -2 -2 -1 -1 -1 -1 -1 -1 -1 -2 -3 -3 -3 -3 -4 -4 -4 -4 -4 -4 -5 -5 -5 -5 -5 -5 -5
2 2 2 0 -1 -2 -2 -1 -1 -1 -1 -2 -2 -2 -2 -2 -2 -2 -3 -3 -3 -3 -3 -3 -4 -4 -4 -4 -4 -4 -4 -4
2 2 2 1 -0 -2 -2 -1 -1 -1 -1 -2 -2 -2 -2 -2 -1 -2 -2 -3 -3 -3 -3 -3 -3 -3 -3 -3 -3 -4 -4 -4
2 2 3 3 1 -1 -1 -1 -1 -1 -1 -1 -1 -1 -1 -2 -1 -1 -1 -2 -3 -3 -3 -2 -2 -3 -3 -3 -3 -3 -3 -3
2 2 3 3 2 1 -1 -1 -1 -1 -1 -1 -1 -1 -1 -1 -1 -1 -1 -1 -2 -2 -2 -2 -2 -2 -2 -2 -3 -3 -2 -2
2 2 2 2 3 1 0 -0 -1 -1 -1 -1 -1 -1 -1 -1 -1 -1 -1 -1 -1 -2 -2 -2 -2 -2 -2 -2 -3 -3 -2 -2
2 2 2 2 2 2 1 -0 -1 -2 -2 -2 -2 -2 -2 -1 -1 -1 -1 -1 -1 -2 -2 -2 -2 -2 -2 -3 -3 -3 -3 -3
2 2 2 2 2 2 1 0 -2 -3 -3 -4 -4 -3 -2 -2 -2 -1 -1 -1 -1 -2 -2 -2 -2 -2 -3 -3 -3 -3 -4 -4
2 2 3 2 2 2 2 1 -1 -3 -4 -5 -5 -4 -4 -3 -2 -2 -2 -1 -1 -2 -2 -2 -2 -3 -3 -4 -4 -4 -4 -4
2 2 3 2 2 1 1 0 -2 -4 -5 -5 -5 -5 -5 -4 -3 -3 -2 -2 -2 -2 -2 -3 -3 -4 -4 -4 -5 -5 -5 -5
2 3 3 2 2 1 1 -1 -3 -4 -5 -5 -5 -5 -5 -5 -4 -4 -4 -3 -3 -3 -3 -3 -4 -4 -5 -5 -5 -5 -5 -5
2 2 3 3 3 2 1 -1 -3 -4 -5 -5 -5 -6 -6 -6 -5 -5 -5 -5 -5 -4 -5 -5 -5 -5 -5 -5 -5 -5 -5 -5
2 2 2 2 2 2 1 -0 -2 -4 -5 -5 -6 -6 -6 -7 -6 -6 -6 -6 -6 -6 -6 -6 -6 -6 -6 -5 -5 -5 -5 -5
2 2 2 2 2 2 1 0 -2 -4 -5 -5 -5 -6 -7 -7 -7 -7 -7 -7 -7 -6 -6 -7 -7 -6 -6 -5 -5 -5 -5 -4